Terug naar catalogus

ARIANE 5 R/B

ActiefHEO
NORAD 41383·ROCKET BODY·🇫🇷 France

Gelanceerd Mar 9, 2016 vanaf Guiana Space Centre

Loading…

Volgende Passages (komende 24 uur)

TLE

VersSource: Space-Track

Epoch: Sep 14, 2026, 14:41 UTC

1 41383U 16014B   26257.61222555  .00016732  00000-0  89815-3 0  9994
2 41383   0.5162 277.0880 6393856 213.4526 305.6261  3.51669538105937

Volg ARIANE 5 R/B in realtime met AllMySat

Download on the App Store